Havre, MT

1:13 AM MDT on September 30, 2016 (GMT -0600)
Havre City-County

Weather History for KHVR - May, 2014

Change the Weather History Date:

Wednesday, May 14, 2014

  Actual Average Record
Temperature  
Mean Temperature 52 °F 53 °F  
Max Temperature 70 °F 67 °F 97 °F (1936)
Min Temperature 34 °F 40 °F 27 °F (2016)
Degree Days  
Heating Degree Days 13 12  
Month to date heating degree days 268 194  
Since 1 July heating degree days 8281 7931  
Cooling Degree Days 0 0  
Month to date cooling degree days 0 0  
Year to date cooling degree days 0 1  
Growing Degree Days 2 (Base 50)    
Moisture  
Dew Point 29 °F    
Average Humidity 45    
Maximum Humidity 70    
Minimum Humidity 20    
Precipitation  
Precipitation 0.00 in 0.06 in 1.43 in (1951)
Month to date precipitation 0.53 0.65  
Year to date precipitation 3.25 2.64  
Snow  
Snow 0.00 in 0.00 in T in (1946)
Month to date snowfall 0.0 0.7  
Since 1 July snowfall 44.4 37.9  
Snow Depth 0.00 in    
Sea Level Pressure  
Sea Level Pressure 30.30 in    
Wind  
Wind Speed 6 mph (East)    
Max Wind Speed 14 mph    
Max Gust Speed 16 mph    
Visibility 10 miles    
Events      
T = Trace of Precipitation, MM = Missing Value Source: NWS Daily Summary

Daily Weather History Graph

Daily Weather History Graph

Search for Another Location

Airport or City:

Trip Planner

Search our weather history database for the weather conditions in past years. The results will help you decide how hot, cold, wet, or windy it might be!

Date:

Astronomy

May. 14, 2014 Rise Set
Actual Time 5:39 AM MDT 8:51 PM MDT
Civil Twilight 5:02 AM MDT 9:29 PM MDT
Nautical Twilight 4:13 AM MDT 10:18 PM MDT
Astronomical Twilight 3:11 AM MDT 11:21 PM MDT
Moon 8:58 PM MDT (5/14) 5:45 AM MDT (5/14)
Length of Visible Light 16h 27m
Length of Day
15h 12m
Full, 100% of the Moon is Illuminated
May 14
Full
May 14
Full
May 21
Last Quarter
May 28
New
Jun 5
First Quarter

Hourly Weather History & Observations

Time (MDT) Temp. Windchill Dew Point Humidity Pressure Visibility Wind Dir Wind Speed Gust Speed Precip Events Conditions
12:53 AM 41.0 °F 37.1 °F 30.0 °F 65% 30.38 in 10.0 mi East 5.8 mph - N/A   Clear
1:53 AM 39.9 °F 33.9 °F 30.0 °F 68% 30.38 in 10.0 mi ENE 9.2 mph - N/A   Clear
2:53 AM 39.0 °F 32.8 °F 28.9 °F 67% 30.38 in 10.0 mi NE 9.2 mph - N/A   Clear
3:53 AM 37.0 °F 28.9 °F 28.0 °F 70% 30.38 in 10.0 mi ENE 12.7 mph - N/A   Clear
4:53 AM 36.0 °F 27.5 °F 26.1 °F 67% 30.39 in 10.0 mi ENE 12.7 mph - N/A   Clear
5:53 AM 35.1 °F 26.9 °F 26.1 °F 70% 30.39 in 10.0 mi ENE 11.5 mph - N/A   Clear
6:53 AM 37.0 °F 32.4 °F 27.0 °F 67% 30.39 in 10.0 mi East 5.8 mph - N/A   Clear
7:53 AM 44.1 °F - 28.9 °F 55% 30.38 in 10.0 mi Calm Calm - N/A   Clear
8:53 AM 51.8 °F - 30.2 °F 44% 30.36 in 10.0 mi NE 3.5 mph - N/A   Clear
9:53 AM 55.9 °F - 26.1 °F 32% 30.37 in 10.0 mi Variable 4.6 mph - N/A   Clear
10:53 AM 60.1 °F - 25.0 °F 26% 30.35 in 10.0 mi Variable 3.5 mph - N/A   Partly Cloudy
11:53 AM 60.1 °F - 25.0 °F 26% 30.34 in 10.0 mi Calm Calm - N/A   Overcast
12:53 PM 62.1 °F - 26.1 °F 25% 30.33 in 10.0 mi Variable 3.5 mph - N/A   Clear
1:53 PM 64.9 °F - 28.0 °F 25% 30.30 in 10.0 mi West 4.6 mph - N/A   Clear
2:53 PM 66.2 °F - 26.6 °F 23% 30.27 in 10.0 mi NW 3.5 mph - N/A   Clear
3:53 PM 68.0 °F - 27.0 °F 21% 30.27 in 10.0 mi Variable 3.5 mph - N/A   Clear
4:53 PM 69.1 °F - 28.9 °F 22% 30.25 in 10.0 mi Variable 4.6 mph - N/A   Clear
5:53 PM 69.1 °F - 27.0 °F 21% 30.24 in 10.0 mi Calm Calm - N/A   Clear
6:53 PM 66.9 °F - 30.9 °F 26% 30.22 in 10.0 mi ESE 9.2 mph - N/A   Partly Cloudy
7:53 PM 61.0 °F - 37.0 °F 41% 30.20 in 10.0 mi ESE 6.9 mph - N/A   Clear
8:53 PM 57.0 °F - 37.0 °F 47% 30.19 in 10.0 mi ESE 8.1 mph - N/A   Clear
9:53 PM 55.0 °F - 36.0 °F 49% 30.19 in 10.0 mi ESE 5.8 mph - N/A   Overcast
10:53 PM 57.0 °F - 35.1 °F 44% 30.17 in 10.0 mi ESE 4.6 mph - N/A   Overcast
11:53 PM 57.9 °F - 32.0 °F 37% 30.16 in 10.0 mi Variable 4.6 mph - N/A   Overcast